[[{"header":{"parameterUnit":"m.s-1","parameterCategory":1,"la1":30.2991,"la2":30.254,"lo1":-89.0895,"lo2":-89.0444,"dy":0.0017,"dx":0.0017,"nx":28,"ny":28,"refTime":"2024-03-28T09:00:00:Z","depth":0,"parameterNumber":2,"parameterNumberName":"U-component_of_WINDS"},"data":[0,0,0,0,0,0,0,0,0,0,0,0,0,0,0,0,0,0,0,0,0,0,0,0,0,0,0,0,0,0,0,0,0,0,0,0,0,0,0,0,0,0,0,0,0,0,0,0,0,0,0,0,0,0,0,0,0,0,2.4607,2.4606,0,2.4577,2.4576,2.4576,2.4519,2.4518,2.4517,2.4516,2.4486,2.4486,2.4486,0,0,0,0,0,0,0,0,0,0,0,0,0,2.4616,2.4616,2.4607,2.4606,2.4606,2.4577,2.4576,2.4576,2.4519,2.4518,2.4516,2.4515,2.4486,2.4486,2.4486,0,0,0,0,0,0,0,0,0,0,0,0,0,2.4602,2.4616,2.4607,2.4574,2.4571,2.4577,2.4576,2.4576,2.4519,2.4518,2.4516,2.4514,2.4485,2.4486,2.4486,2.4522,0,0,2.4487,2.4487,0,0,0,0,0,0,0,0,2.4602,2.4601,2.4579,2.4576,2.4573,2.455,2.4568,2.4558,2.452,2.4539,2.4516,2.4514,2.4508,2.4507,2.4505,2.452,2.4519,2.4487,2.4488,2.4488,2.4488,0,0,0,0,0,0,0,2.4603,2.4602,2.4595,2.4579,2.4575,2.4561,2.4557,2.4566,2.4533,2.4537,2.4533,2.453,2.4506,2.4505,2.4504,2.4519,2.4487,2.4488,2.4488,2.4488,2.4563,2.4564,0,0,0,0,0,0,2.4609,2.4603,2.4596,2.4594,2.4584,2.4562,2.4558,2.4559,2.4533,2.4528,2.4532,2.4528,2.4505,2.4503,2.4502,2.4542,2.4488,2.4488,2.4488,2.4561,2.4563,2.4565,0,0,0,0,0,0,2.461,2.4609,2.4597,2.4597,2.4595,2.4564,2.4565,2.4559,2.4557,2.4529,2.4523,2.4536,2.4503,2.4502,2.4517,2.454,2.4488,2.4488,2.4559,2.4562,2.4564,2.4623,0,0,0,0,0,0,2.461,2.4609,2.4622,2.4598,2.4595,2.4612,2.4567,2.456,2.4558,2.4552,2.4531,2.4526,2.4502,2.4517,2.4518,2.454,2.4489,2.4557,2.456,2.4563,2.4619,2.4627,2.4634,0,0,0,0,0,2.4611,2.464,2.4623,2.4623,2.461,2.4614,2.4612,2.4583,2.456,2.4573,2.4555,2.4527,2.4538,2.4519,2.452,2.4542,2.4555,2.4559,2.4563,2.4615,2.4625,2.4634,0,0,0,0,0,0,2.4668,2.4636,2.4617,2.464,2.463,2.4604,2.4619,2.4595,2.4592,2.4587,2.4552,2.4547,2.4568,2.4557,2.4536,2.4576,2.4542,2.4546,2.4582,2.4591,2.4599,2.4601,2.4489,0,0,0,0,0,2.4683,2.4688,2.466,2.4683,2.4679,2.465,2.4651,2.463,2.4618,2.4613,2.4596,2.4586,2.4588,2.4589,2.4589,2.4617,2.4612,2.4633,2.4641,2.4648,2.4651,2.4666,2.4675,2.4578,2.4578,2.4578,0,0,2.4714,2.4698,2.4703,2.4694,2.4684,2.469,2.4647,2.4655,2.4659,2.4615,2.4628,2.4616,2.4602,2.4624,2.4633,2.4616,2.4677,2.4653,2.4658,2.4658,2.4671,2.468,2.4688,2.4581,2.458,2.458,0,0,2.4775,2.4763,2.478,2.4771,2.4756,2.4737,2.4742,2.472,2.4709,2.4723,2.4689,2.4694,2.4697,2.4689,2.4685,2.4744,2.4718,2.4745,2.4786,2.48,2.4808,2.4814,2.4835,2.4843,2.4749,2.4749,2.4749,0,2.4816,2.4823,2.4792,2.4803,2.48,2.476,2.4778,2.477,2.4757,2.4756,2.4736,2.4739,2.4728,2.4747,2.4762,2.476,2.4764,2.4746,2.4809,2.4815,2.4821,2.484,2.4848,2.4752,2.4752,2.4752,2.4751,0,2.4874,2.488,2.4896,2.4883,2.4882,2.4897,2.4869,2.4872,2.4851,2.4834,2.4848,2.4833,2.4829,2.4832,2.4813,2.485,2.4839,2.4815,2.4781,2.4834,2.4851,2.4859,2.4757,2.4756,2.4755,2.4754,0,0,2.4968,2.4939,2.4945,2.4939,2.492,2.4925,2.4938,2.4933,2.4936,2.4929,2.4938,2.4943,2.492,2.4916,2.4895,2.4908,2.4955,2.4882,2.4881,2.4896,2.4995,2.5013,2.5022,2.4939,2.494,2.4941,2.4996,0,2.5023,2.5043,2.5016,2.5042,2.5047,2.501,2.5021,2.5011,2.4996,2.4999,2.4982,2.4985,2.4956,2.4953,2.4964,2.4947,2.4975,2.4943,2.4947,2.4948,2.4951,2.5031,2.5049,2.5102,2.5003,2.5004,2.5005,0,2.509,2.5085,2.5112,2.5092,2.5093,2.5103,2.5098,2.5101,2.5089,2.5077,2.5073,2.5049,2.506,2.5028,2.5043,2.5023,2.5023,2.5015,2.5016,2.5015,2.4979,2.5031,2.5118,2.5126,2.5015,2.5015,2.5014,0,2.5155,2.5156,2.5171,2.5167,2.5145,2.5153,2.5144,2.5131,2.513,2.5126,2.5125,2.5122,2.5121,2.5119,2.5095,2.5073,2.5113,2.5079,2.5104,2.5105,2.5113,2.5112,2.5201,2.5115,2.5115,2.5115,2.5115,0,2.5219,2.5237,2.52,2.521,2.5228,2.5198,2.5217,2.5205,2.5194,2.52,2.5169,2.5176,2.5143,2.5147,2.5128,2.5144,2.5144,2.5134,2.5129,2.5137,2.5138,2.5135,2.5131,2.5117,2.5116,2.5116,2.5116,0,2.5295,2.5271,2.5285,2.5263,2.5258,2.5273,2.5254,2.5262,2.5245,2.5254,2.5255,2.5229,2.5232,2.5208,2.5206,2.5193,2.5218,2.5207,2.5222,2.5218,2.5244,2.5241,2.5333,2.5343,2.5252,2.5253,2.5254,0,2.5336,2.5349,2.5328,2.533,2.5323,2.5327,2.5326,2.5298,2.5298,2.5287,2.5296,2.5297,2.5295,2.5302,2.5283,2.5282,2.527,2.5302,2.5269,2.5277,2.5269,2.5269,2.527,2.5309,2.531,2.5311,2.5311,0,2.5413,2.5401,2.5401,2.5397,2.5398,2.5393,2.5387,2.5391,2.536,2.5363,2.5365,2.5364,2.5363,2.5364,2.5359,2.535,2.5326,2.5322,2.5328,2.5335,2.5343,2.5338,2.5239,2.532,2.5319,2.5318,2.5318,2.5318,2.5472,2.5481,2.5468,2.547,2.5462,2.5457,2.5464,2.5449,2.545,2.5446,2.543,2.5436,2.5425,2.5416,2.5409,2.5414,2.5398,2.5406,2.5408,2.541,2.5415,2.5344,2.5413,2.5413,2.5412,2.5412,2.5412,0,2.5546,2.5536,2.5538,2.553,2.5532,2.5509,2.5502,2.5504,2.5509,2.5501,2.5501,2.5504,2.5505,2.5487,2.5485,2.5492,2.5481,2.5493,2.5492,2.549,2.5429,2.5424,2.5502,2.5502,2.5502,2.5502,2.5502,2.5502,2.5585,2.56,2.5586,2.5597,2.5587,2.5592,2.559,2.5585,2.5578,2.5583,2.5584,2.5572,2.556,2.5558,2.5558,2.5553,2.5553,2.5569,2.556,2.5503,2.5494,2.5486,2.5481,2.5569,2.557,2.562,2.562,2.5621]},{"header":{"parameterUnit":"m.s-1","parameterCategory":1,"la1":30.2991,"la2":30.254,"lo1":-89.0895,"lo2":-89.0444,"dy":0.0017,"dx":0.0017,"nx":28,"ny":28,"refTime":"2024-03-28T09:00:00:Z","depth":0,"parameterNumber":3,"parameterNumberName":"V-component_of_WINDS"},"data":[0,0,0,0,0,0,0,0,0,0,0,0,0,0,0,0,0,0,0,0,0,0,0,0,0,0,0,0,0,0,0,0,0,0,0,0,0,0,0,0,0,0,0,0,0,0,0,0,0,0,0,0,0,0,0,0,0,0,-5.5422,-5.5423,0,-5.5573,-5.5574,-5.5576,-5.5519,-5.5516,-5.5513,-5.5509,-5.5661,-5.5668,-5.5675,0,0,0,0,0,0,0,0,0,0,0,0,0,-5.5082,-5.5088,-5.5421,-5.5423,-5.5425,-5.5572,-5.5574,-5.5576,-5.552,-5.5516,-5.5512,-5.5508,-5.5658,-5.5667,-5.5676,0,0,0,0,0,0,0,0,0,0,0,0,0,-5.5231,-5.509,-5.5421,-5.5415,-5.5416,-5.5572,-5.5574,-5.5577,-5.5521,-5.5516,-5.5511,-5.5506,-5.5656,-5.5666,-5.5677,-5.5847,0,0,-5.571,-5.5715,0,0,0,0,0,0,0,0,-5.5222,-5.5243,-5.5414,-5.5416,-5.5417,-5.5522,-5.551,-5.5667,-5.5522,-5.5481,-5.5509,-5.5503,-5.5619,-5.5632,-5.5672,-5.5854,-5.5861,-5.5711,-5.5718,-5.5722,-5.5725,0,0,0,0,0,0,0,-5.5212,-5.5236,-5.5481,-5.5416,-5.5418,-5.5404,-5.5419,-5.554,-5.5577,-5.5484,-5.548,-5.5499,-5.5618,-5.5661,-5.5675,-5.5863,-5.5711,-5.572,-5.5727,-5.5731,-5.6193,-5.6199,0,0,0,0,0,0,-5.5201,-5.5228,-5.5476,-5.5486,-5.5305,-5.5414,-5.5431,-5.5493,-5.5575,-5.5583,-5.5503,-5.5496,-5.5645,-5.5662,-5.568,-5.5886,-5.5722,-5.5732,-5.5738,-5.6188,-5.6195,-5.6201,0,0,0,0,0,0,-5.5194,-5.5224,-5.547,-5.5356,-5.5386,-5.5425,-5.5495,-5.5499,-5.5542,-5.559,-5.5596,-5.5541,-5.5642,-5.5665,-5.5806,-5.589,-5.5737,-5.5747,-5.6181,-5.619,-5.6198,-5.6298,0,0,0,0,0,0,-5.5185,-5.5222,-5.5288,-5.5358,-5.5393,-5.5595,-5.5501,-5.5506,-5.5561,-5.5553,-5.5627,-5.5634,-5.564,-5.5791,-5.5817,-5.5902,-5.5755,-5.6174,-5.6185,-5.6195,-5.6287,-5.6309,-5.6327,0,0,0,0,0,-5.5173,-5.5309,-5.5291,-5.5321,-5.5475,-5.56,-5.562,-5.5625,-5.5568,-5.5634,-5.5665,-5.5631,-5.5876,-5.5805,-5.5835,-5.5925,-5.6168,-5.6182,-5.6194,-5.6278,-5.6305,-5.6327,0,0,0,0,0,0,-5.5245,-5.5318,-5.5299,-5.5462,-5.5526,-5.559,-5.5674,-5.5652,-5.5732,-5.5721,-5.5723,-5.574,-5.5886,-5.5919,-5.5839,-5.6094,-5.6014,-5.6033,-5.6067,-5.6093,-5.6112,-5.6102,-5.5765,0,0,0,0,0,-5.5281,-5.5377,-5.5434,-5.5572,-5.5605,-5.5634,-5.5689,-5.5687,-5.5753,-5.5779,-5.582,-5.5884,-5.5976,-5.6036,-5.6122,-5.6291,-5.6307,-5.6368,-5.6388,-5.6404,-5.6421,-5.6514,-5.6542,-5.6244,-5.6244,-5.6243,0,0,-5.5354,-5.5405,-5.5465,-5.5588,-5.5637,-5.5736,-5.5657,-5.5765,-5.5838,-5.5795,-5.5932,-5.5965,-5.6036,-5.6193,-5.6264,-5.6225,-5.6507,-5.642,-5.6433,-5.6441,-5.653,-5.6558,-5.6583,-5.6252,-5.6251,-5.6249,0,0,-5.5538,-5.5586,-5.5707,-5.5759,-5.5835,-5.5853,-5.5882,-5.5951,-5.5972,-5.611,-5.608,-5.6166,-5.6324,-5.6377,-5.6424,-5.663,-5.6602,-5.6658,-5.6763,-5.6853,-5.6877,-5.6897,-5.6972,-5.6998,-5.6674,-5.6675,-5.6675,0,-5.5619,-5.5768,-5.5772,-5.5883,-5.5938,-5.5905,-5.6027,-5.6076,-5.6176,-5.6215,-5.617,-5.6368,-5.6414,-5.6583,-5.6633,-5.6672,-5.6706,-5.665,-5.6873,-5.6894,-5.6913,-5.6984,-5.7012,-5.6681,-5.668,-5.668,-5.6679,0,-5.5864,-5.5968,-5.6057,-5.6156,-5.6221,-5.6337,-5.6358,-5.6423,-5.6416,-5.6439,-5.6581,-5.6635,-5.6732,-5.6772,-5.6765,-5.6941,-5.6915,-5.6872,-5.6791,-5.6948,-5.7015,-5.7042,-5.669,-5.6688,-5.6686,-5.6684,0,0,-5.6098,-5.6199,-5.6232,-5.6277,-5.6359,-5.6439,-5.6554,-5.6651,-5.6707,-5.6777,-5.6874,-5.7008,-5.697,-5.7024,-5.7023,-5.7102,-5.7263,-5.705,-5.7051,-5.7088,-5.7461,-5.7493,-5.7525,-5.7245,-5.725,-5.7254,-5.7455,0,-5.629,-5.6493,-5.65,-5.6685,-5.6781,-5.6751,-5.6851,-5.6912,-5.6937,-5.7022,-5.7049,-5.7145,-5.7086,-5.7119,-5.7196,-5.7227,-5.7338,-5.7213,-5.7335,-5.7339,-5.7319,-5.756,-5.7594,-5.7781,-5.7481,-5.7486,-5.7489,0,-5.654,-5.662,-5.6816,-5.6885,-5.6926,-5.7016,-5.7106,-5.7188,-5.7256,-5.7269,-5.733,-5.7318,-5.7435,-5.735,-5.7512,-5.7426,-5.7476,-5.75,-5.7507,-5.7519,-5.7424,-5.7579,-5.784,-5.7869,-5.753,-5.7526,-5.7523,0,-5.6693,-5.6849,-5.6986,-5.7026,-5.711,-5.7174,-5.7212,-5.7276,-5.7334,-5.7413,-5.7451,-5.7541,-5.7591,-5.7661,-5.7674,-5.7611,-5.7836,-5.7752,-5.785,-5.785,-5.7899,-5.7896,-5.8173,-5.793,-5.7929,-5.7929,-5.7928,0,-5.6906,-5.7027,-5.7056,-5.7141,-5.7275,-5.7282,-5.7415,-5.7448,-5.7505,-5.7595,-5.7574,-5.7659,-5.767,-5.7758,-5.7768,-5.7901,-5.7923,-5.7937,-5.7938,-5.7939,-5.7938,-5.7973,-5.796,-5.7936,-5.7935,-5.7933,-5.7932,0,-5.7099,-5.7124,-5.7272,-5.734,-5.736,-5.7457,-5.7515,-5.7596,-5.7619,-5.7733,-5.776,-5.7796,-5.7899,-5.7918,-5.8038,-5.8045,-5.8204,-5.8192,-5.8182,-5.8181,-5.8278,-5.8269,-5.8588,-5.863,-5.8359,-5.8361,-5.8363,0,-5.7234,-5.7327,-5.7406,-5.7466,-5.7507,-5.7603,-5.7663,-5.7674,-5.7737,-5.7823,-5.7894,-5.7994,-5.8075,-5.824,-5.8276,-5.8368,-5.8359,-5.8464,-5.8372,-5.8371,-5.8362,-5.8356,-5.8366,-5.8482,-5.8485,-5.8487,-5.8489,0,-5.7472,-5.748,-5.7568,-5.7661,-5.7734,-5.7807,-5.7876,-5.7926,-5.7946,-5.8018,-5.8123,-5.8186,-5.831,-5.841,-5.8502,-5.854,-5.8519,-5.8518,-5.8546,-5.8548,-5.8539,-5.8546,-5.8231,-5.851,-5.8508,-5.8507,-5.8506,-5.8505,-5.7641,-5.7722,-5.7792,-5.789,-5.7944,-5.801,-5.809,-5.8124,-5.8212,-5.8315,-5.8315,-5.8431,-5.8498,-5.862,-5.8664,-5.8754,-5.872,-5.876,-5.877,-5.878,-5.879,-5.8524,-5.877,-5.877,-5.8769,-5.8769,-5.8768,0,-5.7878,-5.7922,-5.8013,-5.8112,-5.819,-5.8164,-5.824,-5.8307,-5.8409,-5.8474,-5.8555,-5.8676,-5.8773,-5.8818,-5.8914,-5.8978,-5.897,-5.9002,-5.8998,-5.9008,-5.8814,-5.8781,-5.9007,-5.9007,-5.9007,-5.9007,-5.9007,-5.9007,-5.8011,-5.8148,-5.8165,-5.8328,-5.837,-5.8485,-5.853,-5.8591,-5.8643,-5.878,-5.8862,-5.8891,-5.8948,-5.9048,-5.9136,-5.9147,-5.9183,-5.9221,-5.9227,-5.9045,-5.9021,-5.8998,-5.8967,-5.9228,-5.9229,-5.9413,-5.9415,-5.9416]}]]